Погода в Каменниках

Россия / Ярославская область     58°09′07″N   38°39′40″E
темп.,
°C
ветер,
м/с
пор.,
м/с
влажн.,
%
обл.,
%
осадки,
мм/ч
давл.,
гПа
погр.,
м
21 октября, чт
чт2100:00+1ю111897100 4.9 999838
03:00+3ююз122093100 10.3 994804
06:00+7ююз122197100 1.7 990645
09:00+9юз111991100 1.9 989595
12:00+10юз111891100 0.4 990577
15:00+10юз81588100 0.6 991456
18:00+10юз81489100 0.2 992302
21:00+10ююз71394100 0.2 991309
22 октября, пт
пт2200:00+9ю81394100 0.9 988298
03:00+10ююз101784100 1.4 986545
06:00+10юз101681100 0.3 985470
09:00+10зюз815815 0.9 986497
12:00+9юз814735 0.1 989575
15:00+6зюз8148698 3.3 989757
18:00+7зюз11177433 0.0 9921118
21:00+6юз11167511 0.0 9941108
23 октября, сб
сб2300:00+6юз11167546 0.0 9951185
03:00+6юз111670100 0.0 9961099
06:00+6юз101576100 0.0 9961130
09:00+6юз9148299 0.0 9971038
12:00+5юз9128997 0.1 998910
15:00+5юз8118991 0.5 1000754
18:00+5зюз7988100 0.5 1001857
21:00+5зюз71187100 0.6 1002625
24 октября, вс
вс2400:00+4з71091100 0.1 1003733
03:00+4з6897100 1.2 1004586
06:00+3сз6792100 1.6 1004657
09:00+3ссз7795100 2.1 1006583
12:00+3ссз8982100 0.6 1009816
15:00+2с91189100 0.8 1012882
18:00+2с10127497 0.2 10161216
21:00+2с1012759 0.3 10191061
25 октября, пн
пн2500:00+1с911735 0.0 1022976
03:00+1ссз810725 0.0 1024878
06:00+1ссз78725 0.0 1026675
09:00+1сз67725 0.0 1028656
12:00+2зсз6760100 0.0 1029604
15:00+3з5654100 0.0 1029702
18:00+2юз7959100 0.0 1028564
21:00+1юз81280100 0.3 1027718